CZ-6A DEB, 60825

Orbit data source: Space-Track

CZ-6A DEB, 60825 is space debris in LEO originally from a launch on Tue, 06 Aug 2024 UTC launched from the Taiyaun Space Center, China (TSC). Debris objects in space refer to the collection of defunct objects orbiting the Earth. Examples of debris include non-operational satellites, rocket bodies, and fragments generated from explosions, collisions, or faulty payload assembly.

Loading next visibility...
Identifier
60825, 2024-140HC
Orbit
LEO
Country
Flag of CNCN / PRC
Related business
Manufacturer
SAST
Mission
Spacecraft
Bus & Motor
Unknown
Mass
Unknown
Launch date (UTC)
2024-08-06 (1 year ago)
Launch vehicle
Unknown
Launch site
Taiyaun Space Center, China (TSC)
Object type
Payload
Rocket body
Debris
Shape & HBR
Unknown shape, 0.1 m
Radar Cross Section
Small (<0.1 m²)

Expand to show TLE details & history
Last TLE update: 10 hours ago

TLE from 10 hours ago
0 CZ-6A DEB
1 60825U 24140HC  25352.83738159  .00002178  00000-0  67093-3 0  9999
2 60825  88.7928 280.6844 0061215 232.3316 127.2323 14.40100870 70835
Epoch: 2025-12-18T20:05Z
TLE epoch observation values (Epoch: 2025-12-18T20:05:49.769Z)
Latitude
-0.0001°
Longitude
-108.46013°
Altitude
787.852 km
Speed
7.446 km/s
True Right ascension
18h 42m 44s
True Declination
0° 00' 00"
Sunlit
Object was in daylight at epoch
Visualization orbit readout
Latitude
Unknown
Longitude
Unknown
Altitude
Unknown
Speed
Unknown
Apparent Right ascension
Unknown
Apparent Declination
Unknown
Sunlit
N/A
Visualization observer readout
Local Sidereal Time
04:54:06
Azimuth
Unknown
Elevation
Unknown
Doppler factor
Unknown
Orbital elements
Apogee altitude
798.755 km
Perigee altitude
711.423 km
Semi-major axis
7,133.226 km
Eccentricity
0.00612
Inclination
88.7928°
RAAN
280.6844°
Arg. of periapsis
232.3316°
True anomaly
127.78822°
Mean anomaly
127.2323°
Eccentric anomaly
127.51052°
Mean motion
3.60258 °/min
Orbital period
99.93 mins
BSTAR
0.00067093
Loading maneuver chart data...
Computing Atmospheric mass density...
Loading historical data...
Loading historical data...
Loading historical data...
Loading historical data...
Loading historical data...
Loading historical data...
Loading historical data...

Documentation

Showing up to 5 results
|